Weather in Besovets

Russia / Republic of Karelia     61°51′53″N   34°09′24″E
temp.,
°C
wind,
m/s
gust,
m/s
humid.,
%
clouds,
%
prec.,
mm/h
press.,
hPa
HPBL,
m
2 march, tue
tue200:00+1wnw6138984 0.2 1003992
03:00−1wnw6158757 0.2 1004700
06:00−2wnw515860 0.0 1002693
09:00−3wnw513894 0.0 1004696
12:00−1nw6128293 0.1 10051483
15:00−2nw6117596 0.3 10081507
18:00−4nw4138361 0.1 1010626
21:00−6wnw3128630 0.1 1012412
3 march, wed
wed300:00−6w310910 0.0 1011277
03:00−5w4129513 0.0 1012384
06:00−3w5119394 0.0 1009557
09:00−4w5129095 0.0 1008627
12:00−2w5108972 0.0 1006558
15:00−1w5119177 0.1 1003732
18:00−2w51195100 0.6 999916
21:00−2wnw41189100 1.5 998840
4 march, thu
thu400:00−4nw51192100 0.1 998599
03:00−6nw31095100 0.2 1000451
06:00−9nw2597100 0.3 1000150
09:00−11nw259792 0.3 1001152
12:00−7nw249268 0.0 1001324
15:00−5nnw248880 0.0 1002640
18:00−7nw2296100 0.3 100263
21:00−8wnw259798 0.5 1003137
5 march, fri
fri500:00−10wnw239788 0.1 100379
03:00−14wnw239772 0.2 100450
06:00−12nnw269798 0.3 1006238
09:00−13nnw279797 0.4 1007285
12:00−10nnw258687 0.0 1009460
15:00−9nw249080 0.1 1011499
18:00−10w2595100 0.2 1011159
21:00−12w259696 0.2 1012108
6 march, sat
sat600:00−14w369662 0.0 1013128
03:00−15w239651 0.0 101371
06:00−15w35960 0.0 101295
09:00−13wsw38941 0.0 1011202
12:00−7sw488813 0.0 1009540
15:00−7ssw598555 0.0 1005741
18:00−7ssw51292100 0.2 999957
21:00−6s51392100 1.0 9921082